User: anonymous   Login
Location: Unspecified
(0.0000°N, 0.0000°E)
Time: 19:10:13
(UTC+00:00)
Language:

STARLINK-31996 - Orbit

View from above orbital plane
View from above orbital plane
View from above satellite
View from above satellite

Ground track
Ground track

The orbit is defined by the following mean orbital elements,

1 60100U          26145.13361694 +.00000000 +00000-0 +35792-4 0 00001
2 60100  53.1607  41.8172 0001168  87.0362 273.0773 15.30198877    04
Epoch (UTC): 25 May 2026 03:12:24
Eccentricity: 0.0001168
inclination: 53.1607°
perigee height: 474 km
apogee height: 476 km
right ascension of ascending node: 41.8172°
argument of perigee: 87.0362°
revolutions per day: 15.30198877
mean anomaly at epoch: 273.0773°

The dashed part of the orbit path shows where the satellite is in the earth's shadow,  

DLR